Regional Weather Roundup
Issued by NWS

Home | Current Version | Previous Version | Text Only | Print | Product List | Glossary On
Versions: 1 2 3 4 5 6 7 8 9 10 11 12 13 14 15 16 17 18 19 20 21 22 23 24 25 26 27 28 29 30 31 32 33 34 35 36 37 38 39 40 41 42 43 44 45 46 47 48 49 50
000
ASHW40 PHFO 271232
RWRHI

WEATHER ROUNDUP FOR HAWAII
NATIONAL WEATHER SERVICE HONOLULU HI
200 AM HST SAT AUG 27 2016

THIS IS AN AUTOMATED REPORT THAT HAS NOT BEEN QUALITY CONTROLLED.

NOTE..."FAIR" INDICATES FEW OR NO CLOUDS BELOW 12,000 FEET WITH NO
SIGNIFICANT WEATHER AND/OR OBSTRUCTIONS TO VISIBILITY.

* - THESE SITES REPORT LIMITED FIELDS

HIZ001>004-271300-
KAUAI-NIIHAU-

CITY           SKY/WX    TMP DP  RH WIND       PRES   REMARKS
LIHUE APT      PTCLDY    76  68  76 NE9       30.03F
PORT ALLEN*      N/A     77 N/A N/A NE8         N/A
POIPU*           N/A     75 N/A N/A N5G10       N/A
PRINCEVILLE*     N/A     72 N/A N/A S2          N/A
KOKOLE POINT*    N/A     79 N/A N/A MISG        N/A
MOLOAA DAIRY*    N/A     72  70  94 E1          N/A
WAIMEA HTS*    NOT AVBL
PUU OPAE*      NOT AVBL
PUU LUA*       NOT AVBL
MAKAHA RIDGE*    N/A     68  61  77 SE1G7       N/A
$$

HIZ005>011-271300-
OAHU-

CITY           SKY/WX    TMP DP  RH WIND       PRES   REMARKS
HONOLULU       PTCLDY    78  64  61 VRB3      29.98F
KALAELOA       CLEAR     76  67  73 N5        30.00F
KANEOHE MCB    CLOUDY    76  70  82 SE5       29.97F
WHEELER FIELD  FAIR      71  68  90 NW5       30.01F
BELLOWS*         N/A    N/A N/A N/A N3G15       N/A
KAHUKU*          N/A    N/A N/A N/A VRB1        N/A
WHEELER*       NOT AVBL
WAIANAE HARBOR NOT AVBL
DILLINGHAM*      N/A     90  79  70 MISG        N/A  HX 105
KAHUKU TRN*      N/A     73  68  83 W7G13       N/A
KAWAILOA*        N/A     72  66  83 E5G18       N/A
KII*             N/A     79  68  69 E12         N/A
MAKUA RANGE*     N/A     79  66  65 NW9G20      N/A
OAHU FOREST NW NOT AVBL
SCHOFIELD BRK*   N/A     70  66  88 MISG        N/A
SCHOFIELD S*   NOT AVBL
WAIANAE VLY*   NOT AVBL
KUAOKALA*      NOT AVBL
HONOULIUULI*   NOT AVBL
MOKUOLOE IS*   NOT AVBL
PALEHUA*       NOT AVBL
WAIAWA PHB*    NOT AVBL
$$

HIZ012>013-271300-
MOLOKAI-

CITY           SKY/WX    TMP DP  RH WIND       PRES   REMARKS
MOLOKAI AIRPT  CLEAR     76  68  76 NE8       29.99F
KALAUPAPA      NOT AVBL
MAKAPULAPAI*     N/A     73  68  83 SE12G22     N/A
MOLOKAI 1*     NOT AVBL
PUU ALII*        N/A     58  58 100 NE2         N/A
$$

HIZ016-271300-
KAHOOLAWE-

CITY           SKY/WX    TMP DP  RH WIND       PRES   REMARKS
KAHOOLAWE*       N/A     70 N/A N/A NE1         N/A
HAKIOAWA*        N/A     71  65  82 MISG        N/A
HONOKANAIA*      N/A     77  67  71 VRB6G12   29.92F
KANELOA*         N/A     72  66  83 N9        30.04F
KEALIALALO*    NOT AVBL
LUA MAKIKA*    NOT AVBL
$$

HIZ014>015-271300-
LANAI-

CITY           SKY/WX    TMP DP  RH WIND       PRES   REMARKS
LANAI CITY     FAIR      72  65  78 E8        30.04F
LANAI 1*       NOT AVBL
$$

HIZ017>028-271300-
MAUI-

CITY           SKY/WX    TMP DP  RH WIND       PRES   REMARKS
KAHULUI        CLOUDY    77  66  68 NE8       29.98F
KAPALUA-W MAUI NOT AVBL
HANA AIRPORT     N/A     72  68  88 S3        30.01F
HANA*            N/A     72 N/A N/A S3          N/A
HALEAKALA SUMM   N/A     48  19  32 E1G22       N/A
MAALAEA BAY*     N/A     77 N/A N/A VRB15G21    N/A
HALEAKALA*     NOT AVBL
KAUPO GAP*     NOT AVBL
KULA 1*          N/A     48  46  93 E3          N/A
$$

HIZ023>026-271300-
BIG ISLAND OF HAWAII COAST AND LOWER SLOPES-

CITY           SKY/WX    TMP DP  RH WIND       PRES   REMARKS
KAILUA KONA    CLOUDY    78  72  81 SE7       29.93F
HILO           PTCLDY    72  67  84 SW3       29.97F
HONOKAA*         N/A     64 N/A N/A VRB1        N/A
KAWAIHAE MWT*    N/A     77 N/A N/A NE6         N/A
KAWAIHAE*        N/A     79 N/A N/A E2        29.94F
SOUTH POINT*     N/A     72 N/A N/A N6          N/A
UPOLU AIRPORT* NOT AVBL
KAMUELA*       MOSUNNY   63  61  94 NE8       30.07F
HAKALAU*         N/A     45  43  93 SW2         N/A
KALOKO-HONOKO*   N/A     75  72  88 NE1G7     29.92F
PALI 2*          N/A     64  57  77 SE7         N/A
KEALAKOMO*       N/A     77  63  61 N18G35      N/A
KAUPULEHU*     NOT AVBL
KAPAPALA*        N/A     63  62  95 NW5         N/A
LOWER KAHUKU*    N/A     57  57 100 N2          N/A
PUHE CS*         N/A     77  63  61 E3          N/A
PUHO CS*         N/A     75  71  87 N2G8        N/A
PTA KEAMUKU*     N/A     61  54  77 CALM        N/A
WAIKOLOA*      NOT AVBL
$$

HIZ027>028-271300-
BIG ISLAND OF HAWAII INTERIOR AND SUMMMITS-

CITY           SKY/WX    TMP DP  RH WIND       PRES   REMARKS
BRADSHAW FIELD PTCLDY    50  46  86 SE2       30.30F
MK VISITOR CEN   N/A     46  25  42 N3          N/A
MAUNA KEA*       N/A     37   1  22 CALM        N/A
MAUNA LOA*       N/A    N/A N/A N/A MISG        N/A
MAUNA LOA 1*   NOT AVBL
PTA KIPUKA*      N/A     54  52  94 E1          N/A
PTA RANGE 17*    N/A     54  48  82 E6          N/A
PTA WEST*        N/A     77  72  83 SE9         N/A
NENE CABIN*      N/A     46  46 100 N5          N/A
AHUMOA*        NOT AVBL
PTA PORTABLE*  NOT AVBL
PUU MALI*        N/A     54  41  62 SE5G12      N/A
$$

HIC003-271300-
NORTHWEST ISLANDS-

CITY           SKY/WX    TMP DP  RH WIND       PRES   REMARKS
MIDWAY ISLAND  PTCLDY    75  70  83 E13       30.06F
MIDWAY NOS*      N/A     77 N/A N/A MISG      30.05F
FRENCH FRIGATE NOT AVBL
$$

PHZ110>124-180-271300-
BUOY REPORTS

STATION/POSITION TIME  TEMP    WIND        PRES    WAVE   SWELL
                       AIR SEA DIR/SP/G            HT/PER HT/DIR
                 (UTC) (F)     (DEG/KT/KT) (MB)    (FT/S) (FT/D)
BUOY 51001       NOT AVBL
BUOY 51101       1150   79 81   70/ 14/ 16 1017.6F   5/14   3/170
BUOY 51100       NOT AVBL
BUOY 51002       NOT AVBL
BUOY 51003       1150   81 83   80/ 10/ 14 1014.3F   6/ 8   5/110
BUOY 51004       1150   78 82  350/ 14/ 16 1013.2F   5/ 7   5/ 80
BARBERS PT BUOY  NOT AVBL
WAIMEA BAY BUOY  1204      81                N/A     3/ 6
KAILUA BAY BUOY  1211      81                N/A     5/ 8   2/110
LANAI BUOY       1215      82                N/A     3/14   2/190
BARBERS PT 2     NOT AVBL
PAUWELA MAUI     1209      80                N/A     4/ 8
HILO             1212      81                N/A     5/ 7   2/130
KANEOHE BAY BUOY 1206      80                N/A     4/ 7
HANALEI KAUAI    NOT AVBL
KAHULUI HARBOR   1200   77 82   10/  5/  8 1015.4F
HONOLULU HARBOR  1200   78 81  110/  2/  5 1016.1F
KILO NALU        NOT AVBL
HILO HARBOR      1200   73 81  250/  2/  3 1014.5F
MOKUOLOE         1100   78 82   90/  5/ 11 1016.2F
NAWILIWILI       1200   74 82  250/  4/  5 1016.5F
WHOTS BUOY       NOT AVBL
BUOY 51028       NOT AVBL
$$

......................KEY........................................
  SKY/WX - SKY CONDITIONS/PRESENT WEATHER
  TMP    - TEMPERATURE IN FAHRENHEIT
  DWPT   - DEWPOINT IN FAHRENHEIT
  RH     - RELATIVE HUMIDITY IN PERCENT
  WIND   - DIRECTION AND SPEED /MPH FOR ISLANDS...KTS FOR BUOYS/
  PRES   - MEAN SEA LEVEL PRESSURE IN INCHES OF HG
  VSB    - VISIBILITY IN MILES
  HX     - HEAT INDEX
  WCI    - WIND CHILL INDEX
  VRB    - VARIABLE WIND DIRECTION
  N/A    - NOT AVAILABLE




USA.gov is the U.S. government's official web portal to all federal, state and local government web resources and services.